User: anonymous   Login
Location: Unspecified
(0.0000°N, 0.0000°E)
Time: 20:55:00
(UTC+00:00)
Language:

Milstar 3 - Orbit

View from above orbital plane
View from above orbital plane
View from above satellite
View from above satellite

Ground track
Ground track

The orbit data is extracted from the following two-line orbital elements,

1 25724U 99023A   18080.80595907 0.00000000  00000-0  00000-0 0    06
2 25724  28.1978 342.3430 2129851 328.6821  31.3174  9.37451134    00
Epoch (UTC): 21 March 2018 19:20:34
Eccentricity: 0.2129851
inclination: 28.1978°
perigee height: 1099 km
apogee height: 5146 km
right ascension of ascending node: 342.3430°
argument of perigee: 328.6821°
revolutions per day: 9.37451134
mean anomaly at epoch: 31.3174°
orbit number at epoch: 0

The dashed part of the orbit path shows where the satellite is in the earth's shadow,  

DLR